• In Russia
  • List of Countries
  • For 7 days
  • Water Temperature
  • Satellite Maps
  • Weather Map
  • Weather Widgets
  • user-avatar
    Login

    Hourly Weather Louangphabang

    Today, 23 February, Saturday

    Time Temperature Precipitation Wind Pressure Humidity
    00:00 +21°C° 0 mm 1 mps 697 mmHg 59%
    01:00 +19°C° 0 mm 0 mps 697 mmHg 63%
    02:00 +19°C° 0 mm 0 mps 697 mmHg 63%
    03:00 +18°C° 0 mm 0 mps 697 mmHg 64%
    04:00 +18°C° 0 mm 0 mps 697 mmHg 65%
    05:00 +18°C° 0 mm 0 mps 697 mmHg 65%
    06:00 +18°C° 0 mm 0 mps 697 mmHg 65%
    07:00 +17°C° 0 mm 0 mps 698 mmHg 65%
    08:00 +21°C° 0 mm 0 mps 698 mmHg 54%
    09:00 +26°C° 0 mm 0 mps 699 mmHg 42%
    10:00 +30°C° 0 mm 0 mps 700 mmHg 31%
    11:00 +33°C° 0 mm 1 mps 699 mmHg 27%
    12:00 +34°C° 0 mm 1 mps 699 mmHg 23%
    13:00 +35°C° 0 mm 1 mps 698 mmHg 19%
    14:00 +35°C° 0 mm 1 mps 698 mmHg 19%
    15:00 +35°C° 0 mm 1 mps 697 mmHg 19%
    16:00 +35°C° 0 mm 1 mps 697 mmHg 18%
    17:00 +32°C° 0 mm 1 mps 696 mmHg 24%
    18:00 +26°C° 0 mm 0 mps 696 mmHg 30%
    19:00 +23°C° 0 mm 0 mps 696 mmHg 36%
    20:00 +22°C° 0 mm 0 mps 696 mmHg 38%
    21:00 +21°C° 0 mm 0 mps 697 mmHg 40%
    22:00 +23°C° 0 mm 1 mps 697 mmHg 43%
    23:00 +22°C° 0 mm 1 mps 697 mmHg 45%

    Tomorrow, 24 February, Sunday

    Time Temperature Precipitation Wind Pressure Humidity
    00:00 +20°C° 0 mm 0 mps 697 mmHg 47%
    01:00 +19°C° 0 mm 0 mps 697 mmHg 48%
    02:00 +19°C° 0 mm 0 mps 697 mmHg 49%
    03:00 +19°C° 0 mm 0 mps 697 mmHg 50%
    04:00 +18°C° 0 mm 0 mps 696 mmHg 51%
    05:00 +18°C° 0 mm 0 mps 697 mmHg 52%
    06:00 +18°C° 0 mm 0 mps 697 mmHg 53%
    07:00 +18°C° 0 mm 0 mps 697 mmHg 54%
    08:00 +22°C° 0 mm 0 mps 698 mmHg 45%
    09:00 +26°C° 0 mm 0 mps 699 mmHg 35%
    10:00 +31°C° 0 mm 0 mps 700 mmHg 26%
    11:00 +34°C° 0 mm 1 mps 699 mmHg 24%
    12:00 +35°C° 0 mm 1 mps 699 mmHg 21%
    13:00 +36°C° 0 mm 1 mps 698 mmHg 19%
    14:00 +36°C° 0 mm 1 mps 697 mmHg 19%
    15:00 +35°C° 0 mm 1 mps 696 mmHg 19%
    16:00 +35°C° 0 mm 1 mps 695 mmHg 19%
    17:00 +32°C° 0 mm 1 mps 696 mmHg 26%
    18:00 +29°C° 0 mm 1 mps 696 mmHg 33%
    19:00 +26°C° 0 mm 1 mps 696 mmHg 40%
    20:00 +25°C° 0 mm 1 mps 696 mmHg 42%
    21:00 +24°C° 0 mm 1 mps 697 mmHg 45%
    22:00 +23°C° 0 mm 1 mps 697 mmHg 48%
    23:00 +23°C° 0 mm 1 mps 697 mmHg 49%

    Day after tomorrow, 25 February, Monday

    Time Temperature Precipitation Wind Pressure Humidity
    00:00 +23°C° 0 mm 1 mps 697 mmHg 50%
    01:00 +22°C° 0 mm 1 mps 697 mmHg 51%
    02:00 +22°C° 0 mm 1 mps 697 mmHg 51%
    03:00 +21°C° 0 mm 1 mps 696 mmHg 52%
    04:00 +21°C° 0 mm 1 mps 696 mmHg 52%
    05:00 +19°C° 0 mm 0 mps 697 mmHg 54%
    06:00 +19°C° 0 mm 0 mps 697 mmHg 56%
    07:00 +19°C° 0 mm 0 mps 698 mmHg 57%
    08:00 +24°C° 0 mm 1 mps 699 mmHg 51%
    09:00 +28°C° 0 mm 1 mps 700 mmHg 44%
    10:00 +32°C° 0 mm 1 mps 701 mmHg 38%
    11:00 +33°C° 0 mm 1 mps 700 mmHg 34%
    12:00 +34°C° 0 mm 1 mps 699 mmHg 30%
    13:00 +36°C° 0 mm 2 mps 698 mmHg 27%
    14:00 +36°C° 0 mm 2 mps 697 mmHg 26%
    15:00 +36°C° 0 mm 2 mps 697 mmHg 26%
    16:00 +36°C° 0 mm 2 mps 696 mmHg 26%
    17:00 +33°C° 0 mm 1 mps 696 mmHg 33%
    18:00 +30°C° 0 mm 1 mps 696 mmHg 40%
    19:00 +28°C° 0 mm 1 mps 696 mmHg 47%
    20:00 +26°C° 0.2 mm 1 mps 697 mmHg 53%
    21:00 +25°C° 0.2 mm 1 mps 697 mmHg 58%
    22:00 +24°C° 0.2 mm 1 mps 698 mmHg 64%
    23:00 +23°C° 0.2 mm 1 mps 698 mmHg 67%

    26 February, Tuesday

    Time Temperature Precipitation Wind Pressure Humidity
    00:00 +23°C° 0.2 mm 1 mps 698 mmHg 71%
    01:00 +23°C° 0.2 mm 1 mps 697 mmHg 74%
    02:00 +22°C° 0.1 mm 1 mps 697 mmHg 77%
    03:00 +22°C° 0.1 mm 1 mps 697 mmHg 80%
    04:00 +21°C° 0.1 mm 1 mps 696 mmHg 83%
    05:00 +21°C° 0.1 mm 1 mps 697 mmHg 83%
    06:00 +19°C° 0.1 mm 0 mps 698 mmHg 84%
    07:00 +19°C° 0.1 mm 0 mps 698 mmHg 85%
    08:00 +24°C° 0.4 mm 1 mps 699 mmHg 72%
    09:00 +27°C° 0.4 mm 1 mps 700 mmHg 60%
    10:00 +31°C° 0.4 mm 1 mps 701 mmHg 48%
    11:00 +32°C° 0.1 mm 1 mps 700 mmHg 43%
    12:00 +34°C° 0.1 mm 2 mps 699 mmHg 38%
    13:00 +35°C° 0.1 mm 2 mps 698 mmHg 34%
    14:00 +35°C° 0 mm 2 mps 698 mmHg 33%
    15:00 +34°C° 0 mm 2 mps 697 mmHg 33%
    16:00 +34°C° 0 mm 2 mps 697 mmHg 33%
    17:00 +31°C° 0.1 mm 1 mps 697 mmHg 42%
    18:00 +28°C° 0.1 mm 1 mps 697 mmHg 51%
    19:00 +26°C° 0.1 mm 1 mps 697 mmHg 61%
    20:00 +25°C° 0.6 mm 1 mps 697 mmHg 67%
    21:00 +24°C° 0.6 mm 1 mps 698 mmHg 73%
    22:00 +23°C° 0.6 mm 1 mps 698 mmHg 80%
    23:00 +22°C° 0 mm 1 mps 698 mmHg 81%

    27 February, Wednesday

    Time Temperature Precipitation Wind Pressure Humidity
    00:00 +22°C° 0 mm 1 mps 698 mmHg 82%
    01:00 +22°C° 0 mm 1 mps 697 mmHg 83%
    02:00 +22°C° 0 mm 1 mps 697 mmHg 83%
    03:00 +19°C° 0 mm 0 mps 697 mmHg 83%
    04:00 +19°C° 0 mm 0 mps 697 mmHg 83%
    05:00 +19°C° 0.2 mm 0 mps 697 mmHg 84%
    06:00 +19°C° 0.2 mm 0 mps 698 mmHg 84%
    07:00 +19°C° 0.2 mm 0 mps 698 mmHg 84%
    08:00 +22°C° 0.5 mm 0 mps 699 mmHg 74%
    09:00 +27°C° 0.5 mm 1 mps 700 mmHg 64%
    10:00 +30°C° 0.5 mm 1 mps 700 mmHg 54%
    11:00 +31°C° 0.6 mm 1 mps 700 mmHg 51%
    12:00 +32°C° 0.6 mm 1 mps 699 mmHg 47%
    13:00 +33°C° 0.6 mm 1 mps 698 mmHg 43%
    14:00 +33°C° 0 mm 1 mps 698 mmHg 42%
    15:00 +32°C° 0 mm 1 mps 697 mmHg 41%
    16:00 +32°C° 0 mm 1 mps 697 mmHg 39%
    17:00 +30°C° 0 mm 1 mps 697 mmHg 45%
    18:00 +29°C° 0 mm 1 mps 697 mmHg 51%
    19:00 +25°C° 0 mm 0 mps 697 mmHg 57%
    20:00 +24°C° 0 mm 0 mps 697 mmHg 60%
    21:00 +23°C° 0 mm 0 mps 697 mmHg 64%
    22:00 +24°C° 0 mm 1 mps 697 mmHg 67%
    23:00 +23°C° 0 mm 1 mps 697 mmHg 68%

    28 February, Thursday

    Time Temperature Precipitation Wind Pressure Humidity
    00:00 +23°C° 0 mm 1 mps 697 mmHg 70%
    01:00 +23°C° 0 mm 1 mps 696 mmHg 71%
    02:00 +22°C° 0 mm 1 mps 696 mmHg 71%
    03:00 +20°C° 0 mm 0 mps 696 mmHg 72%
    04:00 +20°C° 0 mm 0 mps 695 mmHg 73%
    05:00 +20°C° 0.1 mm 0 mps 696 mmHg 74%
    06:00 +20°C° 0.1 mm 0 mps 696 mmHg 75%
    07:00 +19°C° 0.1 mm 0 mps 697 mmHg 76%
    08:00 +22°C° 0.2 mm 0 mps 697 mmHg 68%
    09:00 +26°C° 0.2 mm 1 mps 698 mmHg 61%
    10:00 +29°C° 0.2 mm 1 mps 698 mmHg 53%
    11:00 +30°C° 0.2 mm 1 mps 698 mmHg 48%
    12:00 +32°C° 0.2 mm 2 mps 697 mmHg 42%
    13:00 +34°C° 0.2 mm 2 mps 696 mmHg 36%
    14:00 +34°C° 0 mm 2 mps 696 mmHg 38%
    15:00 +32°C° 0 mm 2 mps 695 mmHg 40%
    16:00 +31°C° 0 mm 2 mps 695 mmHg 42%
    17:00 +29°C° 0 mm 1 mps 695 mmHg 49%
    18:00 +27°C° 0 mm 1 mps 695 mmHg 56%
    19:00 +26°C° 0 mm 1 mps 695 mmHg 63%
    20:00 +25°C° 0.5 mm 1 mps 695 mmHg 68%
    21:00 +24°C° 0.5 mm 1 mps 695 mmHg 74%
    22:00 +23°C° 0.5 mm 1 mps 696 mmHg 79%
    23:00 +23°C° 0.4 mm 1 mps 696 mmHg 81%
    Show more